Back to catalog

STARLINK-36510

AliveCommunicationsVLEO
NORAD 67407·PAYLOAD·🇺🇸 United States

Launched Jan 12, 2026 from Cape Canaveral Space Force Station

Loading…

Next Passes (next 24 hours)

TLE

FreshSource: CelesTrak SupGP

Epoch: Sep 14, 2026, 15:09 UTC

1 67407C 26005D   26257.63173611 -.00029281  00000+0 -10606-2 0  2572
2 67407  43.0027 250.9927 0001453 274.0457  31.5718 15.27591486    12

Track STARLINK-36510 in real time with AllMySat

Download on the App Store